• In Netherlands
  • List of Countries
  • For 7 days
  • Water Temperature
  • Satellite Maps
  • Weather Map
  • Weather Widgets
  • user-avatar
    Login

    Hourly Weather Stepanakert

    Today, 23 March, Thursday

    Time Temperature Precipitation Wind Pressure Humidity
    00:00 +2°C° 0 mm 1 mps 691 mmHg 79%
    01:00 +2°C° 0 mm 1 mps 691 mmHg 79%
    02:00 +2°C° 0 mm 1 mps 691 mmHg 80%
    03:00 +2°C° 0 mm 1 mps 691 mmHg 73%
    04:00 +2°C° 0 mm 1 mps 691 mmHg 73%
    05:00 +1°C° 0 mm 1 mps 691 mmHg 74%
    06:00 +1°C° 0 mm 1 mps 692 mmHg 74%
    07:00 +3°C° 0 mm 1 mps 692 mmHg 68%
    08:00 +5°C° 0 mm 1 mps 692 mmHg 62%
    09:00 +7°C° 0 mm 1 mps 693 mmHg 56%
    10:00 +8°C° 0 mm 1 mps 693 mmHg 55%
    11:00 +8°C° 0 mm 2 mps 693 mmHg 55%
    12:00 +8°C° 0 mm 2 mps 692 mmHg 54%
    13:00 +8°C° 0.1 mm 2 mps 692 mmHg 56%
    14:00 +8°C° 0.1 mm 2 mps 692 mmHg 58%
    15:00 +8°C° 0.1 mm 2 mps 692 mmHg 61%
    16:00 +7°C° 0.2 mm 2 mps 692 mmHg 68%
    17:00 +6°C° 0.2 mm 2 mps 692 mmHg 75%
    18:00 +6°C° 0.2 mm 1 mps 693 mmHg 82%
    19:00 +6°C° 0.2 mm 1 mps 693 mmHg 86%
    20:00 +5°C° 0.2 mm 1 mps 693 mmHg 89%
    21:00 +4°C° 0.2 mm 1 mps 694 mmHg 93%
    22:00 +3°C° 0.1 mm 1 mps 694 mmHg 94%
    23:00 +3°C° 0.1 mm 1 mps 694 mmHg 95%

    Tomorrow, 24 March, Friday

    Time Temperature Precipitation Wind Pressure Humidity
    00:00 +2°C° 0.1 mm 1 mps 694 mmHg 96%
    01:00 +1°C° 0.1 mm 0 mps 694 mmHg 96%
    02:00 +1°C° 0.1 mm 0 mps 694 mmHg 97%
    03:00 0°C° 0.1 mm 0 mps 694 mmHg 97%
    04:00 0°C° 0.1 mm 0 mps 695 mmHg 96%
    05:00 0°C° 0.1 mm 0 mps 695 mmHg 96%
    06:00 +1°C° 0.1 mm 1 mps 695 mmHg 96%
    07:00 +3°C° 0.1 mm 1 mps 696 mmHg 87%
    08:00 +5°C° 0.1 mm 1 mps 696 mmHg 78%
    09:00 +7°C° 0.1 mm 1 mps 697 mmHg 70%
    10:00 +7°C° 0 mm 2 mps 697 mmHg 66%
    11:00 +8°C° 0 mm 2 mps 697 mmHg 63%
    12:00 +9°C° 0 mm 2 mps 696 mmHg 60%
    13:00 +9°C° 0.1 mm 2 mps 696 mmHg 61%
    14:00 +9°C° 0.1 mm 3 mps 696 mmHg 62%
    15:00 +9°C° 0.1 mm 3 mps 695 mmHg 63%
    16:00 +8°C° 0.1 mm 3 mps 695 mmHg 69%
    17:00 +6°C° 0.1 mm 2 mps 695 mmHg 75%
    18:00 +5°C° 0.1 mm 2 mps 695 mmHg 81%
    19:00 +4°C° 0 mm 2 mps 696 mmHg 85%
    20:00 +4°C° 0 mm 1 mps 696 mmHg 88%
    21:00 +3°C° 0 mm 1 mps 696 mmHg 92%
    22:00 +3°C° 0 mm 1 mps 696 mmHg 92%
    23:00 +2°C° 0 mm 1 mps 696 mmHg 93%

    Day after tomorrow, 25 March, Saturday

    Time Temperature Precipitation Wind Pressure Humidity
    00:00 +2°C° 0 mm 1 mps 695 mmHg 93%
    01:00 0°C° 0 mm 0 mps 695 mmHg 93%
    02:00 0°C° 0 mm 0 mps 695 mmHg 94%
    03:00 0°C° 0 mm 0 mps 695 mmHg 94%
    04:00 -1°C° 0 mm 0 mps 694 mmHg 94%
    05:00 -1°C° 0 mm 0 mps 694 mmHg 94%
    06:00 -1°C° 0 mm 0 mps 694 mmHg 95%
    07:00 +2°C° 0 mm 0 mps 694 mmHg 84%
    08:00 +6°C° 0 mm 1 mps 695 mmHg 73%
    09:00 +8°C° 0 mm 1 mps 695 mmHg 62%
    10:00 +9°C° 0 mm 1 mps 695 mmHg 59%
    11:00 +11°C° 0 mm 1 mps 694 mmHg 55%
    12:00 +12°C° 0 mm 2 mps 694 mmHg 52%
    13:00 +12°C° 0 mm 2 mps 693 mmHg 52%
    14:00 +12°C° 0 mm 2 mps 692 mmHg 53%
    15:00 +12°C° 0 mm 2 mps 692 mmHg 53%
    16:00 +10°C° 0 mm 2 mps 691 mmHg 61%
    17:00 +9°C° 0 mm 1 mps 691 mmHg 69%
    18:00 +7°C° 0 mm 1 mps 691 mmHg 76%
    19:00 +6°C° 0 mm 1 mps 691 mmHg 79%
    20:00 +5°C° 0 mm 1 mps 691 mmHg 81%
    21:00 +4°C° 0 mm 1 mps 691 mmHg 84%
    22:00 +4°C° 0 mm 1 mps 691 mmHg 84%
    23:00 +4°C° 0 mm 1 mps 691 mmHg 84%

    26 March, Sunday

    Time Temperature Precipitation Wind Pressure Humidity
    00:00 +4°C° 0 mm 1 mps 691 mmHg 84%
    01:00 +4°C° 0 mm 1 mps 690 mmHg 84%
    02:00 +4°C° 0 mm 1 mps 690 mmHg 84%
    03:00 +3°C° 0 mm 1 mps 690 mmHg 84%
    04:00 +3°C° 0 mm 1 mps 690 mmHg 83%
    05:00 +3°C° 0 mm 1 mps 690 mmHg 81%
    06:00 +3°C° 0 mm 1 mps 690 mmHg 80%
    07:00 +6°C° 0 mm 1 mps 690 mmHg 70%
    08:00 +8°C° 0 mm 1 mps 691 mmHg 61%
    09:00 +11°C° 0 mm 1 mps 691 mmHg 51%
    10:00 +12°C° 0 mm 1 mps 691 mmHg 49%
    11:00 +13°C° 0 mm 2 mps 691 mmHg 46%
    12:00 +14°C° 0 mm 2 mps 690 mmHg 43%
    13:00 +15°C° 0 mm 2 mps 690 mmHg 43%
    14:00 +15°C° 0 mm 2 mps 690 mmHg 44%
    15:00 +15°C° 0 mm 2 mps 690 mmHg 44%
    16:00 +13°C° 0 mm 1 mps 689 mmHg 53%
    17:00 +11°C° 0 mm 1 mps 689 mmHg 61%
    18:00 +9°C° 0 mm 1 mps 689 mmHg 70%
    19:00 +8°C° 0 mm 1 mps 690 mmHg 71%
    20:00 +8°C° 0 mm 1 mps 690 mmHg 72%
    21:00 +7°C° 0 mm 1 mps 690 mmHg 74%
    22:00 +7°C° 0 mm 1 mps 690 mmHg 71%
    23:00 +6°C° 0 mm 2 mps 690 mmHg 69%

    27 March, Monday

    Time Temperature Precipitation Wind Pressure Humidity
    00:00 +5°C° 0 mm 2 mps 690 mmHg 67%
    01:00 +5°C° 0 mm 2 mps 690 mmHg 65%
    02:00 +5°C° 0 mm 2 mps 690 mmHg 63%
    03:00 +5°C° 0 mm 2 mps 690 mmHg 61%
    04:00 +4°C° 0 mm 2 mps 690 mmHg 60%
    05:00 +4°C° 0 mm 2 mps 690 mmHg 59%
    06:00 +4°C° 0 mm 2 mps 690 mmHg 58%
    07:00 +7°C° 0 mm 2 mps 690 mmHg 51%
    08:00 +11°C° 0 mm 1 mps 691 mmHg 44%
    09:00 +14°C° 0 mm 1 mps 691 mmHg 36%
    10:00 +15°C° 0 mm 1 mps 691 mmHg 35%
    11:00 +16°C° 0 mm 2 mps 690 mmHg 33%
    12:00 +17°C° 0 mm 2 mps 690 mmHg 32%
    13:00 +17°C° 0 mm 2 mps 690 mmHg 32%
    14:00 +17°C° 0 mm 2 mps 689 mmHg 33%
    15:00 +18°C° 0 mm 2 mps 689 mmHg 34%
    16:00 +15°C° 0 mm 2 mps 689 mmHg 41%
    17:00 +13°C° 0 mm 1 mps 688 mmHg 49%
    18:00 +11°C° 0 mm 1 mps 688 mmHg 57%
    19:00 +10°C° 0 mm 1 mps 688 mmHg 58%
    20:00 +9°C° 0 mm 1 mps 688 mmHg 59%
    21:00 +8°C° 0 mm 2 mps 689 mmHg 61%
    22:00 +7°C° 0 mm 2 mps 689 mmHg 60%
    23:00 +7°C° 0 mm 2 mps 689 mmHg 59%

    28 March, Tuesday

    Time Temperature Precipitation Wind Pressure Humidity
    00:00 +7°C° 0 mm 2 mps 689 mmHg 59%
    01:00 +7°C° 0 mm 2 mps 688 mmHg 58%
    02:00 +7°C° 0 mm 2 mps 688 mmHg 58%
    03:00 +6°C° 0 mm 2 mps 688 mmHg 58%
    04:00 +6°C° 0 mm 2 mps 688 mmHg 58%
    05:00 +6°C° 0 mm 2 mps 689 mmHg 58%
    06:00 +6°C° 0 mm 2 mps 689 mmHg 58%
    07:00 +9°C° 0 mm 2 mps 689 mmHg 50%
    08:00 +13°C° 0 mm 2 mps 689 mmHg 43%
    09:00 +15°C° 0 mm 2 mps 690 mmHg 36%
    10:00 +17°C° 0 mm 2 mps 690 mmHg 34%
    11:00 +18°C° 0 mm 3 mps 689 mmHg 32%
    12:00 +19°C° 0 mm 3 mps 689 mmHg 30%
    13:00 +19°C° 0 mm 3 mps 689 mmHg 31%
    14:00 +19°C° 0 mm 3 mps 688 mmHg 32%
    15:00 +19°C° 0 mm 3 mps 688 mmHg 33%
    16:00 +17°C° 0 mm 2 mps 688 mmHg 41%
    17:00 +15°C° 0 mm 2 mps 688 mmHg 48%
    18:00 +13°C° 0 mm 1 mps 688 mmHg 56%
    19:00 +13°C° 0.1 mm 1 mps 688 mmHg 58%
    20:00 +12°C° 0.1 mm 1 mps 689 mmHg 59%
    21:00 +11°C° 0.1 mm 0 mps 689 mmHg 61%
    22:00 +11°C° 0.1 mm 1 mps 689 mmHg 63%
    23:00 +11°C° 0.1 mm 1 mps 689 mmHg 65%
    Show more